Location: Asheville, NC
(35.6000°N, 82.5500°W)
Time: 13:20:06
(UTC-05:00)

Vanguard 2 Rocket - Pass Details

Date: 13 February 2018
Orbit: 555 x 3327 km, 32.9° (Epoch: 21 February)

Event Time Altitude Azimuth Distance (km) Brightness Sun altitude
Exits shadow 00:39:35 17° 82° (E) 5,658 10.8 -67.7°
Drops below altitude 10° 00:42:44 10° 79° (E) 6,239 11.1 -67.8°
Sets 00:47:31 0° 76° (ENE) 7,143 11.5 -67.8°
